Home > Weather > Jelgava > Past weeks

Flag for Latvia Past Weather in Jelgava, Latvia — Yesterday and Last 2 Weeks

Now
61 °F

Scattered clouds.


Feels Like: 61 °F
Forecast: 57 / 76 °F
Wind: 2 mph from West

Location: Riga Airport

Current Time: Jul 29, 2016 at 7:08:27 AM

Latest Report: Jul 29, 2016 at 6:20 AM


Visibility: N/A

Pressure: 29.89 "Hg

Humidity: 100%

Dew Point: 61 °F

Location of JelgavaLocation

Past Weather in Jelgava — Graph

°F

Jelgava Temperature Yesterday

Maximum temperature yesterday: 77 °F (at 9:50 AM)
Minimum temperature yesterday: 61 °F (at 2:50 AM)
Average temperature yesterday: 68 °F

High & Low Weather Summary for the Past Weeks

 TemperatureHumidityPressure
High82 °F (Jul 27, 3:50 PM)100% (Jul 14, 5:20 AM)30.12 "Hg (Jul 14, 5:20 AM)
Low50 °F (Jul 17, 4:20 AM)46% (Jul 14, 3:20 PM)29.56 "Hg (Jul 15, 6:20 AM)
Average66 °F81%29.95 "Hg
* Reported Jul 14 5:20 AM — Jul 29 5:50 AM, Jelgava, Weather by CustomWeather, © 2016

Note: Actual official high and low records may vary slightly from our data, if they occured in-between our weather recording intervals... More about our weather records

Advertising

Jelgava Weather History for the Previous 24 Hours

Scroll right to see more
 ConditionsComfort  
Time TempWeatherWind HumidityBarometerVisibility
5:50 AM
Fri, Jul 29
61 °FFog.2 mph94%29.89 "HgN/A
5:20 AM61 °FPassing clouds.2 mph100%29.89 "HgN/A
4:50 AM63 °FPartly cloudy.1 mph94%29.89 "HgN/A
4:20 AM64 °FPartly cloudy.2 mph94%29.89 "HgN/A
3:50 AM64 °FPartly cloudy.3 mph94%29.89 "HgN/A
3:20 AM64 °FPassing clouds.2 mph94%29.89 "HgN/A
2:50 AM64 °FPassing clouds.2 mph94%29.89 "HgN/A
2:20 AM64 °FPassing clouds.3 mph94%29.89 "HgN/A
1:50 AM64 °FPassing clouds.3 mph94%29.86 "HgN/A
1:20 AM63 °FPartly cloudy.2 mph100%29.86 "HgN/A
12:50 AM63 °FPassing clouds.1 mph100%29.86 "HgN/A
12:20 AM64 °FClear.2 mph94%29.86 "Hg10 mi
11:50 PM
Thu, Jul 28
64 °FPassing clouds.5 mph94%29.86 "HgN/A
11:20 PM64 °FPassing clouds.5 mph94%29.86 "HgN/A
10:50 PM66 °FPassing clouds.6 mph88%29.86 "HgN/A
10:20 PM66 °FPartly sunny.5 mph88%29.86 "HgN/A
9:50 PM68 °FBroken clouds.5 mph88%29.86 "HgN/A
9:20 PM68 °FBroken clouds.8 mph88%29.86 "HgN/A
8:50 PM70 °FScattered clouds.2 mph94%29.86 "HgN/A
8:20 PM70 °FScattered clouds.3 mph88%29.86 "HgN/A
7:50 PM70 °FScattered clouds.5 mph94%29.86 "HgN/A
7:20 PM70 °FThundershowers. Passing clouds.5 mph88%29.86 "HgN/A
6:50 PM70 °FThunderstorms. Broken clouds.10 mph88%29.86 "Hg6 mi
6:20 PM72 °FThunderstorms. Partly sunny.7 mph94%29.83 "Hg5 mi
5:50 PM73 °FThunderstorms. Partly sunny.6 mph89%29.83 "HgN/A
5:20 PM75 °FScattered clouds.8 mph83%29.83 "HgN/A
4:50 PM75 °FBroken clouds.9 mph78%29.86 "HgN/A
4:20 PM75 °FPartly sunny.8 mph78%29.86 "HgN/A
3:50 PM75 °FBroken clouds.9 mph83%29.86 "HgN/A
3:20 PM73 °FBroken clouds.10 mph89%29.86 "HgN/A
2:50 PM73 °FScattered clouds.5 mph89%29.89 "HgN/A
2:20 PM72 °FScattered clouds.7 mph88%29.89 "HgN/A
1:50 PM72 °FSprinkles. Broken clouds.3 mph94%29.89 "Hg4 mi
1:20 PM70 °FRain showers. Broken clouds.3 mph94%29.89 "Hg3 mi
12:50 PM70 °FSprinkles. Broken clouds.5 mph94%29.89 "Hg5 mi
12:20 PM70 °FThunderstorms. Broken clouds.3 mph94%29.89 "Hg6 mi
11:50 AM68 °FThunderstorms. Partly sunny.No wind94%29.89 "Hg3 mi
11:20 AM68 °FThundershowers. Partly sunny.5 mph94%29.92 "Hg3 mi
10:50 AM72 °FSprinkles. Scattered clouds.14 mph83%29.92 "Hg6 mi
10:20 AM75 °FPassing clouds.6 mph74%29.89 "HgN/A
9:50 AM77 °FPassing clouds.7 mph69%29.89 "HgN/A
9:20 AM75 °FSunny.7 mph74%29.89 "Hg10 mi
8:50 AM75 °FSunny.7 mph69%29.92 "Hg10 mi
8:20 AM72 °FSunny.6 mph78%29.92 "Hg10 mi
7:50 AM70 °FPassing clouds.5 mph88%29.92 "HgN/A
7:20 AM68 °FPassing clouds.2 mph88%29.92 "Hg6 mi
Weather by CustomWeather, © 2016

See weather overviewHow to use our weather pages